Voltar ao catálogo

COSMOS 1275 DEB

LostPO
NORAD 42232·DEBRIS·🇷🇺 Russia

Lançado Jun 4, 1981 de Plesetsk Cosmodrome

Loading…

Próximas Passagens (próximas 24 horas)

TLE

ObsoletoSource: Space-Track

Época: May 7, 2024, 12:57 UTC

1 42232U 81053UY  24128.53974137  .00002355  00000-0  29874-2 0  9993
2 42232  83.0106  57.1745 0187439  58.7494 303.1863 13.56008925503305

Acompanhe COSMOS 1275 DEB em tempo real com AllMySat

Download on the App Store